Regional Weather Roundup
Issued by NWS

Home | Current Version | Previous Version | Text Only | Print | Product List | Glossary On
Versions: 1 2 3 4 5 6 7 8 9 10 11 12 13 14 15 16 17 18 19 20 21 22 23 24 25 26 27 28 29 30 31 32 33 34 35 36 37 38 39 40 41 42 43 44 45 46 47 48 49 50
000
ASUS43 KMKX 222221
RWRWI

WISCONSIN REGIONAL WEATHER ROUNDUP
NATIONAL WEATHER SERVICE MILWAUKEE/SULLIVAN WI
500 PM CDT FRI JUL 22 2016

NOTE: "FAIR" INDICATES FEW OR NO CLOUDS BELOW 12,000 FEET WITH NO
SIGNIFICANT WEATHER AND/OR OBSTRUCTIONS TO VISIBILITY.

WIZ001-002-006>008-014>016-023>028-222300-
NORTHWEST WISCONSIN

CITY           SKY/WX    TMP DP  RH WIND       PRES   REMARKS
SUPERIOR ARPT  SUNNY     91  65  41 NW9       29.96F HX  92
ASHLAND        SUNNY     92  64  39 W13G18    29.97S HX  93
HAYWARD        SUNNY     89  65  44 VRB5      30.01S HX  91
SIREN          SUNNY     90  63  40 W3        30.01F HX  90
CUMBERLAND     SUNNY     86  61  42 NW7       30.02F HX  86
RICE LAKE      SUNNY     89  64  44 W5        30.02F HX  90
CHETEK         SUNNY     90  64  41 CALM      30.01S HX  92
LADYSMITH      SUNNY     89  63  41 NW8       30.03S HX  90
EAU CLAIRE     SUNNY     93  58  30 VRB6      29.99R HX  92
MENOMONIE      SUNNY     96  59  29 E5        30.00R HX  95
NEW RICHMOND   SUNNY     93  55  27 N5        30.00F HX  91
OSCEOLA        SUNNY     91  63  39 NW7       30.02F HX  91
$$

WIZ003>005-009-010-017-018-222300-
NORTH CENTRAL WISCONSIN

CITY           SKY/WX    TMP DP  RH WIND       PRES   REMARKS
MANITOWISH WTR SUNNY     87  60  39 NW7       30.02R HX  86
ARBOR VITAE    SUNNY     90  60  36 NW8       30.02R HX  89
WOODRUFF       SUNNY     90  60  36 NW8       30.02R HX  89
RHINELANDER    SUNNY     90  62  39 NW7       30.01F HX  90
EAGLE RIVER    SUNNY     88  50  27 N5        30.01S HX  85
LAND O LAKES   SUNNY     88  52  29 NW9G17    30.02S HX  85
PHILLIPS       SUNNY     87  64  44 W6        30.01S HX  88
TOMAHAWK       SUNNY     87  61  40 NW5       30.01S HX  87
MEDFORD        SUNNY     87  66  50 NW6       30.01S HX  89
MERRILL        SUNNY     90  65  43 NW7       30.00S HX  91
$$

WIZ029-030-035-036-043>047-222300-
CENTRAL WISCONSIN

CITY           SKY/WX    TMP DP  RH WIND       PRES   REMARKS
WAUSAU         SUNNY     90  62  39 W8        29.97F HX  90
MOSINEE        SUNNY     90  59  35 NW7       30.01S HX  89
MARSHFIELD     SUNNY     90  63  40 NW6       30.00S HX  91
STEVENS POINT  SUNNY     88  63  42 W7        29.99F HX  89
WAUPACA        SUNNY     94  60  31 W5        29.97S HX  94
WAUTOMA        SUNNY     91  68  46 NW5       29.97F HX  95
WISC RAPIDS    SUNNY     92  58  31 NW6       29.99F HX  91
CAMP DOUGLAS   MOSUNNY   92  78  63 N3        29.97F HX 106
$$

WIZ011>013-019>022-031-037>040-048>050-222300-
NORTHEAST WISCONSIN

CITY           SKY/WX    TMP DP  RH WIND       PRES   REMARKS
ANTIGO         SUNNY     88  65  46 CALM      30.00F HX  90
SHAWANO        SUNNY     92  62  35 W7        29.95F HX  93
OCONTO         SUNNY     90  68  48 SW8       29.92F HX  94
STURGEON BAY   SUNNY     89  68  49 SW10      29.95F HX  93
GREEN BAY      SUNNY     90  68  48 W3        29.95F HX  94
MANITOWOC      SUNNY     83  70  64 SE7       29.96F HX  87
APPLETON       SUNNY     90  63  40 W8        29.97S HX  90
CLINTONVILLE   SUNNY     91  55  29 W7        29.95F HX  89
OSHKOSH        SUNNY     90  71  53 W6        29.96F HX  96
$$

WIZ032>034-041-042-053>061-222300-
SOUTHWEST WISCONSIN

CITY           SKY/WX    TMP DP  RH WIND       PRES   REMARKS
LA CROSSE      SUNNY     93  75  55 W7        29.96S HX 104
SPARTA         SUNNY     90  76  62 CALM      29.98S HX 101
VIROQUA        MOSUNNY   88  77  71 W5        30.01F HX 100
BOSCOBEL       SUNNY     90  77  65 NW5       29.98S HAZE    HX 103
PRAIRIE DU CHI PTSUNNY   88  75  65 W3        29.97F HX  97
PLATTEVILLE    SUNNY     86  79  78 CALM      30.00F HX  99
$$

WIZ056-057-062-063-064-067-068-222300-
SOUTH CENTRAL WISCONSIN

CITY           SKY/WX    TMP DP  RH WIND       PRES   REMARKS
REEDSBURG      MOSUNNY   88  78  71 CALM      29.97F HX 102
BARABOO/DELLS  MOSUNNY   88  75  65 W3        29.98F HX  98
LONE ROCK      SUNNY     88  77  69 CALM      29.98F HX 100
MINERAL POINT  PTSUNNY   88  79  74 CALM      30.01F HX 102
MADISON        MOSUNNY   89  76  65 VRB3      29.98F HX 100
MIDDLETON      MOSUNNY   89  76  64 CALM      30.00S HX 100
WATERTOWN      MOSUNNY   89  76  66 W6        29.97F HX 100
MONROE         MOSUNNY   86  73  66 W3        30.00F HX  93
JANESVILLE     PTSUNNY   90  73  58 W7        29.98F HX  98
$$

WIZ051-052-058>065-066-070>072-222300-
SOUTHEAST WISCONSIN

CITY           SKY/WX    TMP DP  RH WIND       PRES   REMARKS
MILWAUKEE      MOSUNNY   86  70  58 SE9       29.96F HX  90
WAUKESHA       MOSUNNY   88  70  55 W7        29.99F HX  92
MILWAUKEE/TIMM MOSUNNY   91  68  46 NW6       29.98F HX  95
RACINE         SUNNY     87  70  56 SE7       29.98F HX  92
BURLINGTON     MOSUNNY   88  74  63 NW5       29.98F HX  97
KENOSHA        SUNNY     91  73  55 W6        29.97F HX  99
FOND DU LAC    SUNNY     90  70  51 W7        29.97F HX  95
SHEBOYGAN      SUNNY     89  66  46 NW5       29.96F HX  91
WEST BEND      SUNNY     90  63  40 NW6       29.97F HX  90
JUNEAU         MOSUNNY   87  73  61 SW3       29.99F HX  94
$$

LSZ147-162-222300-
LAKE SUPERIOR

STATION/POSITION TIME  TEMP    WIND        PRES    WAVE
                       AIR SEA DIR/SP/G            HT/PER
                 (UTC) (F)     (DEG/KT/KT) (MB)    (FT/S)
W MID LAKE BUOY  2150   66 57  250/ 12/ 14 1012.8S   1/ 4
DEVILS ISLAND    2200   75     260/ 12/ 13 1013.7S
SAXON HARBOR     2100   84     300/  3/  5 1014.6S
$$

LMZ867-665-643>646-222300-
LAKE MICHIGAN

STATION/POSITION TIME  TEMP    WIND        PRES    WAVE
                       AIR SEA DIR/SP/G            HT/PER
                 (UTC) (F)     (DEG/KT/KT) (MB)    (FT/S)
CHAMBERS ISLAND  2100   84     180/  5/ 13 1013.2F
S GREEN BAY BUOY 2200   80 76  190/  6/  8   N/A
N MID LAKE BUOY  2150   71 69  200/ 14/ 16 1012.4F   1/ 5
NORTHPORT PIER   2100   81     150/  6/  8 1012.9F
KEWAUNEE LAKESHO 2100   69     180/ 12/ 13 1014.3F
SHEBOYGAN LAKESH 2200   75     150/ 14/ 14 1014.4F
PORT WASHINGTON  2100   81     180/  4/  6 1015.9
MILWAUKEE LAKESH 2210   75     130/  1/  1   N/A
S MID LAKE BUOY  2150   76 74  210/  2/  2 1014.6F   1
KENOSHA   LAKESH 2200   78     160/  8/  9 1014.2F
$$

TC  - TEMPERATURE IN CELSIUS
VSB - VISIBILITY IN STATUTE MILES
WCI - WIND CHILL INDEX
HX  - HEAT INDEX





USA.gov is the U.S. government's official web portal to all federal, state and local government web resources and services.